Regional Weather Roundup
Issued by NWS

Home | Current Version | Previous Version | Graphics & Text | Print | Product List | Glossary On
Versions: 1 2 3 4 5 6 7 8 9 10 11 12 13 14 15 16 17 18 19 20 21 22 23 24 25 26 27
000
ASUS45 KBOI 301910
RWRID

IDAHO REGIONAL WEATHER ROUNDUP
NATIONAL WEATHER SERVICE BOISE ID
100 PM MDT TUE AUG 30 2016

NOTE: "FAIR" INDICATES FEW OR NO CLOUDS BELOW 12000 FEET
WITH NO SIGNIFICANT WEATHER AND/OR OBSTRUCTIONS TO VISIBILITY

IDZ012-014-302000-
SOUTHWEST IDAHO


CITY           SKY/WX    TMP DP  RH WIND       PRES   REMARKS
BOISE          CLOUDY    80  40  23 NE6       29.98F
CALDWELL       CLOUDY    78  48  34 E6        29.95F
MOUNTAIN HOME  PTSUNNY   89  36  15 SE12      29.95F
$$

IDZ016-017-302000-
SOUTHCENTRAL IDAHO


CITY           SKY/WX    TMP DP  RH WIND       PRES   REMARKS
BURLEY         MOSUNNY   90  41  18 E8        30.05F
JEROME         MOSUNNY   90  37  15 E10       30.05F
TWIN FALLS     MOSUNNY   84  50  30 NE10      30.05F
$$

IDZ019>023-302000-
SOUTHEAST IDAHO


CITY           SKY/WX    TMP DP  RH WIND       PRES   REMARKS
IDAHO FALLS    SUNNY     86  34  15 W6        30.16F
POCATELLO      SUNNY     90  35  14 NE8       30.12F
REXBURG        SUNNY     86  37  17 VRB3      30.17F
$$

IDZ006-010-011-018-031-032-302000-
CENTRAL IDAHO MOUNTAINS


CITY           SKY/WX    TMP DP  RH WIND       PRES   REMARKS
MCCALL         CLOUDY    72  36  26 SW3       30.12F
HAILEY         MOSUNNY   84  43  23 SE10      30.18
STANLEY          N/A     73  30  20 N6        30.24F
SALMON         CLOUDY    73  37  27 NW3       30.12F
CHALLIS        MOSUNNY   81  26  13 NE3       30.15F
$$

IDZ002-004-006-007-026-302000-
NORTHERN IDAHO


CITY           SKY/WX    TMP DP  RH WIND       PRES   REMARKS
LEWISTON       CLOUDY    80  45  28 NW5       29.89F
LOWELL           N/A     80  46  30 CALM      29.92F
COEUR D`ALENE  PTSUNNY   81  48  32 NE9       29.93F
MULLAN PASS    CLOUDY    69  40  34 SE8       30.20S
$$




USA.gov is the U.S. government's official web portal to all federal, state and local government web resources and services.